This is the latest recevied weather packets stored in our database for station/object KX4O-13. If no packets are shown the sender has not sent any weather packets the latest 10 day(s).
| Time | Temp. | Humidity | Pressure | Rain* | Wind** | Luminosity | Snow |
|---|---|---|---|---|---|---|---|
| 1777560361 | 16.67° C | 62% | 1009.9 hPa | 0 mm | - | 724 W/m² | - |
| 1777560061 | 16.11° C | 64% | 1009.8 hPa | 0 mm | - | 698 W/m² | - |
| 1777559761 | 16.11° C | 65% | 1009.8 hPa | 0 mm | - | 401 W/m² | - |
| 1777559461 | 15.56° C | 67% | 1009.9 hPa | 0 mm | - | 749 W/m² | - |
| 1777559161 | 15.56° C | 63% | 1010 hPa | 0 mm | - | 183 W/m² | - |
| 1777558861 | 15° C | 71% | 1009.9 hPa | 0 mm | - | 202 W/m² | - |
| 1777558561 | 15.56° C | 71% | 1010 hPa | 0 mm | - | 202 W/m² | - |
| 1777558261 | 16.11° C | 71% | 1010 hPa | 0 mm | - | 613 W/m² | - |
| 1777557961 | 16.11° C | 71% | 1010 hPa | 0 mm | - | 573 W/m² | - |
| 1777557661 | 15.56° C | 71% | 1010.1 hPa | 0 mm | - | 555 W/m² | - |
| 1777557361 | 15.56° C | 71% | 1010.2 hPa | 0 mm | - | 545 W/m² | - |
| 1777557061 | 15.56° C | 71% | 1010.1 hPa | 0 mm | - | 527 W/m² | - |
| 1777556761 | 15.56° C | 71% | 1010.1 hPa | 0 mm | - | 459 W/m² | - |
| 1777556461 | 15.56° C | 71% | 1010 hPa | 0 mm | - | 445 W/m² | - |
| 1777556161 | 15° C | 71% | 1010 hPa | 0 mm | - | 469 W/m² | - |
| 1777555861 | 15.56° C | 77% | 1010.3 hPa | 0 mm | - | 450 W/m² | - |
| 1777555561 | 15° C | 73% | 1010.2 hPa | 0 mm | - | 424 W/m² | - |
| 1777555261 | 15° C | 76% | 1010.1 hPa | 0 mm | - | 380 W/m² | - |
| 1777554961 | 14.44° C | 77% | 1009.9 hPa | 0 mm | - | 380 W/m² | - |
| 1777554661 | 14.44° C | 77% | 1009.9 hPa | 0 mm | - | 357 W/m² | - |
| 1777554361 | 14.44° C | 77% | 1009.9 hPa | 0 mm | - | 334 W/m² | - |
| 1777554061 | 14.44° C | 77% | 1010 hPa | 0 mm | - | 325 W/m² | - |
| 1777553761 | 14.44° C | 80% | 1009.9 hPa | 0 mm | - | 323 W/m² | - |
| 1777553461 | 14.44° C | 79% | 1009.9 hPa | 0 mm | - | 327 W/m² | - |
| 1777553161 | 14.44° C | 78% | 1009.9 hPa | 0 mm | - | 325 W/m² | - |
* Rain latest hour (hover to see other rain measurements)
** Current wind speed in m/s (hover to see current wind gust speed)